Regional Weather Roundup
Issued by NWS Sioux Falls, SD

Home | Current Version | Previous Version | Text Only | Print | Product List | Glossary Off
Versions: 1 2 3 4 5 6 7 8 9 10 11 12 13 14 15 16 17 18 19 20 21 22 23 24 25 26 27 28 29 30 31 32 33 34 35 36 37 38 39 40 41 42 43 44 45 46 47 48 49 50

000
ASUS43 KFSD 231702
RWRFSD

WEATHER ROUNDUP FOR SE SOUTH DAKOTA/SW MINNESOTA/NW IOWA
NATIONAL WEATHER SERVICE SIOUX FALLS SD
1100 AM CST MON JAN 23 2017

NOTE: "FAIR" INDICATES FEW OR NO CLOUDS BELOW 12,000 FEET WITH NO
SIGNIFICANT WEATHER AND OR OBSTRUCTIONS TO VISIBILITY.


SDZ038>040-050-052>070-231800-
SOUTHEAST SOUTH DAKOTA

CITY           SKY/WX    TMP DP  RH WIND       PRES   REMARKS
BROOKINGS      CLOUDY    29  26  89 W8        29.84R WCI  21
CHAMBERLAIN    CLOUDY    31  28  90 SE9       29.81F WCI  23
HURON          CLOUDY    30  26  85 CALM      29.86F
MADISON        CLOUDY    28  28 100 NW6         N/A  WCI  22
MITCHELL       CLOUDY    31  26  82 CALM      29.87S
SIOUX FALLS    CLOUDY    30  28  92 NW6       29.85F WCI  24
WINNER         CLOUDY    29  27  92 SE12      29.78F WCI  19
YANKTON        CLOUDY    30  23  74 CALM      29.87F
$$

MNZ071-072-080-081-089-090-097-098-231800-
SOUTHWEST MINNESOTA

CITY           SKY/WX    TMP DP  RH WIND       PRES   REMARKS
FAIRMONT       CLOUDY    32  29  88 NW6       29.88R WCI  26
JACKSON        CLOUDY    32  28  86 NW8       29.86S WCI  25
LUVERNE        CLOUDY    30  27  86 W7        29.86F WCI  23
MARSHALL       CLOUDY    32  28  85 NW8       29.87R WCI  25
MONTEVIDEO     CLOUDY    34  34 100 NW5       29.88R WCI  30
PIPESTONE      CLOUDY    28  28 100 W6        29.83F FOG     WCI  22
REDWOOD FALLS  CLOUDY    33  27  78 NW5       29.86R WCI  29
TRACY          CLOUDY    32  29  90 W5        29.86S WCI  27
WINDOM         CLOUDY    32  30  93 W8        29.86S WCI  25
WORTHINGTON    CLOUDY    30  28  92 W6          N/A  WCI  24
$$

IAZ001>003-012>014-020>022-031-032-NEZ013-014-SDZ071-231800-
NORTHWEST IOWA

CITY           SKY/WX    TMP DP  RH WIND       PRES   REMARKS
CHEROKEE       CLOUDY    32  30  93 NW6       29.87S WCI  26
DENISON        CLOUDY    32  28  86 NW5       29.86R WCI  27
ESTHERVILLE    CLOUDY    32  29  88 NW6       29.86S WCI  26
LE MARS        CLOUDY    32  28  86 NW6       29.88S WCI  26
ORANGE CITY    CLOUDY    30  28  93 NW5       29.85F WCI  25
SHELDON        CLOUDY    30  32 100 NW7       29.84F WCI  23
SIOUX CITY     CLOUDY    33  28  81 W6        29.89R WCI  28
SPENCER          N/A    N/A N/A N/A MISG      29.86F
STORM LAKE     CLOUDY    32  28  86 N9        29.85F WCI  24
$$

ABBREVIATIONS USED IN REMARKS
   TC - TEMPERATURE IN CELSIUS
  WCI - WIND CHILL INDEX
   HX - HEAT INDEX
  VSB - VISIBILITY




USA.gov is the U.S. government's official web portal to all federal, state and local government web resources and services.